Saint Bonnet de Bellac- Haute Vienne - France
Donnes mto: mercredi, 29/02/2012
Date Horaire Temp. E. Hum. E. P.atmo. Pluie Vent Direction Direction Ensoleilleme Solaire P. de rose Temp au vent Rafales
29/02/2012 00:00 5,4 C 79 % 1022,9 hPa 0,0 mm 2,9 km/h (1 Bft) N-NE 22 0 min 0 W/m 2,1 C 5,4 C 4,3 km/h (1 Bft)
29/02/2012 00:10 5,4 C 80 % 1022,7 hPa 0,0 mm 0,0 km/h (0 Bft) NE 45 0 min 0 W/m 2,2 C 5,4 C 0,0 km/h (0 Bft)
29/02/2012 00:20 5,1 C 80 % 1022,7 hPa 0,0 mm 0,0 km/h (0 Bft) NE 45 0 min 0 W/m 1,9 C 5,1 C 0,0 km/h (0 Bft)
29/02/2012 00:30 4,8 C 80 % 1022,7 hPa 0,0 mm 0,0 km/h (0 Bft) NE 45 0 min 0 W/m 1,6 C 4,8 C 0,0 km/h (0 Bft)
29/02/2012 00:40 4,5 C 81 % 1022,6 hPa 0,0 mm 0,0 km/h (0 Bft) E 90 0 min 0 W/m 1,5 C 4,5 C 0,0 km/h (0 Bft)
29/02/2012 00:50 4,5 C 81 % 1022,6 hPa 0,0 mm 0,0 km/h (0 Bft) E-NE 67 0 min 0 W/m 1,5 C 4,5 C 0,0 km/h (0 Bft)
29/02/2012 01:00 4,4 C 81 % 1022,5 hPa 0,0 mm 0,0 km/h (0 Bft) E-NE 67 0 min 0 W/m 1,4 C 4,4 C 0,0 km/h (0 Bft)
29/02/2012 01:10 4,2 C 82 % 1022,4 hPa 0,0 mm 0,0 km/h (0 Bft) E-NE 67 0 min 0 W/m 1,4 C 4,2 C 0,0 km/h (0 Bft)
29/02/2012 01:20 4,0 C 82 % 1022,5 hPa 0,0 mm 0,0 km/h (0 Bft) E-NE 67 0 min 0 W/m 1,2 C 4,0 C 0,0 km/h (0 Bft)
29/02/2012 01:30 4,0 C 83 % 1022,4 hPa 0,0 mm 0,0 km/h (0 Bft) NE 45 0 min 0 W/m 1,4 C 4,0 C 0,0 km/h (0 Bft)
29/02/2012 01:40 3,8 C 83 % 1022,4 hPa 0,0 mm 0,4 km/h (0 Bft) N-NE 22 0 min 0 W/m 1,2 C 3,8 C 0,4 km/h (0 Bft)
29/02/2012 01:50 3,8 C 83 % 1022,5 hPa 0,0 mm 1,8 km/h (1 Bft) N-NE 22 0 min 0 W/m 1,2 C 3,8 C 4,3 km/h (1 Bft)
29/02/2012 02:02 3,7 C 84 % 1022,4 hPa 0,0 mm 0,0 km/h (0 Bft) N-NE 22 0 min 0 W/m 1,3 C 3,7 C 0,0 km/h (0 Bft)
29/02/2012 02:10 3,6 C 84 % 1022,5 hPa 0,0 mm 0,0 km/h (0 Bft) NE 45 0 min 0 W/m 1,2 C 3,6 C 0,0 km/h (0 Bft)
29/02/2012 02:20 3,4 C 84 % 1022,5 hPa 0,0 mm 1,4 km/h (1 Bft) N-NE 22 0 min 0 W/m 1,0 C 3,4 C 3,6 km/h (1 Bft)
29/02/2012 02:30 3,2 C 84 % 1022,4 hPa 0,0 mm 2,5 km/h (1 Bft) N-NE 22 0 min 0 W/m 0,8 C 3,2 C 4,3 km/h (1 Bft)
29/02/2012 02:40 3,1 C 85 % 1022,4 hPa 0,0 mm 0,4 km/h (0 Bft) N 360 0 min 0 W/m 0,8 C 3,1 C 4,0 km/h (1 Bft)
29/02/2012 02:50 2,9 C 85 % 1022,3 hPa 0,0 mm 0,0 km/h (0 Bft) N 360 0 min 0 W/m 0,6 C 2,9 C 3,2 km/h (1 Bft)
29/02/2012 03:00 2,9 C 86 % 1022,1 hPa 0,0 mm 0,0 km/h (0 Bft) N-NE 22 0 min 0 W/m 0,8 C 2,9 C 0,0 km/h (0 Bft)
29/02/2012 03:10 2,9 C 86 % 1022,0 hPa 0,0 mm 0,0 km/h (0 Bft) N 360 0 min 0 W/m 0,8 C 2,9 C 0,0 km/h (0 Bft)
29/02/2012 03:20 2,9 C 86 % 1022,0 hPa 0,0 mm 0,0 km/h (0 Bft) N-NE 22 0 min 0 W/m 0,8 C 2,9 C 0,0 km/h (0 Bft)
29/02/2012 03:30 3,1 C 87 % 1022,0 hPa 0,0 mm 0,0 km/h (0 Bft) N-NE 22 0 min 0 W/m 1,2 C 3,1 C 0,0 km/h (0 Bft)
29/02/2012 03:40 2,9 C 86 % 1022,0 hPa 0,0 mm 0,0 km/h (0 Bft) N 360 0 min 0 W/m 0,8 C 2,9 C 0,0 km/h (0 Bft)
29/02/2012 03:50 2,6 C 86 % 1022,0 hPa 0,0 mm 0,0 km/h (0 Bft) N 360 0 min 0 W/m 0,5 C 2,6 C 0,0 km/h (0 Bft)
29/02/2012 04:00 2,4 C 86 % 1022,0 hPa 0,0 mm 0,0 km/h (0 Bft) N 360 0 min 0 W/m 0,3 C 2,4 C 0,0 km/h (0 Bft)
29/02/2012 04:10 2,3 C 87 % 1022,0 hPa 0,0 mm 0,0 km/h (0 Bft) N 360 0 min 0 W/m 0,4 C 2,3 C 0,0 km/h (0 Bft)
29/02/2012 04:20 2,1 C 86 % 1021,9 hPa 0,0 mm 0,0 km/h (0 Bft) N 360 0 min 0 W/m 0,0 C 2,1 C 0,0 km/h (0 Bft)
29/02/2012 04:30 1,9 C 87 % 1021,9 hPa 0,0 mm 0,0 km/h (0 Bft) N 360 0 min 0 W/m -0,0 C 1,9 C 0,0 km/h (0 Bft)
29/02/2012 04:40 1,9 C 87 % 1021,8 hPa 0,0 mm 0,0 km/h (0 Bft) N 360 0 min 0 W/m -0,0 C 1,9 C 0,0 km/h (0 Bft)
29/02/2012 04:50 1,8 C 87 % 1021,9 hPa 0,0 mm 0,0 km/h (0 Bft) N 360 0 min 0 W/m -0,1 C 1,8 C 0,0 km/h (0 Bft)
29/02/2012 05:00 1,5 C 87 % 1021,8 hPa 0,0 mm 0,0 km/h (0 Bft) N 360 0 min 0 W/m -0,4 C 1,5 C 0,0 km/h (0 Bft)
29/02/2012 05:10 1,4 C 88 % 1021,7 hPa 0,0 mm 0,0 km/h (0 Bft) E-NE 67 0 min 0 W/m -0,4 C 1,4 C 0,0 km/h (0 Bft)
29/02/2012 05:20 1,3 C 87 % 1021,9 hPa 0,0 mm 0,0 km/h (0 Bft) E-NE 67 0 min 0 W/m -0,6 C 1,3 C 0,0 km/h (0 Bft)
29/02/2012 05:30 1,1 C 87 % 1021,9 hPa 0,0 mm 0,0 km/h (0 Bft) E-NE 67 0 min 0 W/m -0,8 C 1,1 C 0,0 km/h (0 Bft)
29/02/2012 05:40 0,9 C 87 % 1021,9 hPa 0,0 mm 0,0 km/h (0 Bft) E-NE 67 0 min 0 W/m -1,0 C 0,9 C 0,0 km/h (0 Bft)
29/02/2012 05:50 0,9 C 88 % 1021,9 hPa 0,0 mm 0,0 km/h (0 Bft) NE 45 0 min 0 W/m -0,9 C 0,9 C 0,0 km/h (0 Bft)
29/02/2012 06:00 0,9 C 88 % 1021,9 hPa 0,0 mm 0,0 km/h (0 Bft) E 90 0 min 0 W/m -0,9 C 0,9 C 0,0 km/h (0 Bft)
29/02/2012 06:10 0,8 C 88 % 1021,8 hPa 0,0 mm 0,0 km/h (0 Bft) E-NE 67 0 min 0 W/m -1,0 C 0,8 C 3,2 km/h (1 Bft)
29/02/2012 06:20 0,8 C 88 % 1021,9 hPa 0,0 mm 0,0 km/h (0 Bft) E-SE 112 0 min 0 W/m -1,0 C 0,8 C 0,0 km/h (0 Bft)
29/02/2012 06:30 0,7 C 88 % 1021,8 hPa 0,0 mm 0,0 km/h (0 Bft) E 90 0 min 0 W/m -1,1 C 0,7 C 0,0 km/h (0 Bft)
29/02/2012 06:40 0,8 C 89 % 1021,9 hPa 0,0 mm 1,1 km/h (1 Bft) E 90 0 min 0 W/m -0,8 C 0,8 C 1,1 km/h (1 Bft)
29/02/2012 06:50 0,9 C 89 % 1021,7 hPa 0,0 mm 0,0 km/h (0 Bft) S-SE 157 0 min 0 W/m -0,7 C 0,9 C 0,0 km/h (0 Bft)
29/02/2012 07:00 0,6 C 89 % 1021,8 hPa 0,0 mm 0,0 km/h (0 Bft) S-SE 157 0 min 0 W/m -1,0 C 0,6 C 0,0 km/h (0 Bft)
29/02/2012 07:10 0,4 C 89 % 1021,7 hPa 0,0 mm 0,0 km/h (0 Bft) E-SE 112 0 min 0 W/m -1,2 C 0,4 C 0,0 km/h (0 Bft)
29/02/2012 07:20 0,4 C 89 % 1021,7 hPa 0,0 mm 0,0 km/h (0 Bft) S-SE 157 0 min 0 W/m -1,2 C 0,4 C 0,0 km/h (0 Bft)
29/02/2012 07:30 0,4 C 89 % 1021,7 hPa 0,0 mm 0,0 km/h (0 Bft) E-NE 67 0 min 0 W/m -1,2 C 0,4 C 0,0 km/h (0 Bft)
29/02/2012 07:40 0,3 C 89 % 1021,9 hPa 0,0 mm 0,0 km/h (0 Bft) E-NE 67 0 min 0 W/m -1,3 C 0,3 C 0,0 km/h (0 Bft)
29/02/2012 07:50 0,1 C 89 % 1022,0 hPa 0,0 mm 0,0 km/h (0 Bft) E 90 2 min 0 W/m -1,5 C 0,1 C 0,0 km/h (0 Bft)
29/02/2012 08:00 -0,1 C 89 % 1021,9 hPa 0,0 mm 0,0 km/h (0 Bft) S-SE 157 2 min 0 W/m -1,7 C -0,1 C 0,0 km/h (0 Bft)
29/02/2012 08:10 -0,2 C 89 % 1021,8 hPa 0,0 mm 0,0 km/h (0 Bft) S-SE 157 2 min 0 W/m -1,8 C -0,2 C 0,0 km/h (0 Bft)
29/02/2012 08:20 -0,4 C 89 % 1022,0 hPa 0,0 mm 0,0 km/h (0 Bft) E-NE 67 2 min 0 W/m -2,0 C -0,4 C 0,0 km/h (0 Bft)
29/02/2012 08:30 -0,2 C 90 % 1022,2 hPa 0,0 mm 1,1 km/h (1 Bft) E-SE 112 2 min 0 W/m -1,6 C -0,2 C 4,0 km/h (1 Bft)
29/02/2012 08:40 0,8 C 91 % 1022,0 hPa 0,0 mm 0,0 km/h (0 Bft) S-SO 202 2 min 0 W/m -0,5 C 0,8 C 0,0 km/h (0 Bft)
29/02/2012 08:50 1,6 C 92 % 1022,1 hPa 0,0 mm 0,0 km/h (0 Bft) S-SO 202 2 min 0 W/m 0,4 C 1,6 C 0,0 km/h (0 Bft)
29/02/2012 09:00 2,5 C 91 % 1022,1 hPa 0,0 mm 0,0 km/h (0 Bft) E 90 2 min 0 W/m 1,2 C 2,5 C 0,0 km/h (0 Bft)
29/02/2012 09:10 3,7 C 91 % 1022,1 hPa 0,0 mm 0,0 km/h (0 Bft) E 90 2 min 0 W/m 2,4 C 3,7 C 0,0 km/h (0 Bft)
29/02/2012 09:20 4,8 C 90 % 1022,0 hPa 0,0 mm 0,0 km/h (0 Bft) E 90 2 min 0 W/m 3,3 C 4,8 C 0,0 km/h (0 Bft)
29/02/2012 09:30 5,9 C 88 % 1021,9 hPa 0,0 mm 0,0 km/h (0 Bft) E 90 2 min 0 W/m 4,1 C 5,9 C 0,0 km/h (0 Bft)
29/02/2012 09:40 6,8 C 85 % 1022,1 hPa 0,0 mm 0,7 km/h (0 Bft) E 90 2 min 0 W/m 4,5 C 6,8 C 3,6 km/h (1 Bft)
29/02/2012 09:50 7,6 C 82 % 1022,2 hPa 0,0 mm 0,0 km/h (0 Bft) E 90 2 min 0 W/m 4,7 C 7,6 C 1,4 km/h (1 Bft)
29/02/2012 10:00 8,2 C 80 % 1022,3 hPa 0,0 mm 0,0 km/h (0 Bft) E 90 2 min 0 W/m 5,0 C 8,2 C 0,0 km/h (0 Bft)
29/02/2012 10:10 8,8 C 78 % 1022,4 hPa 0,0 mm 0,7 km/h (0 Bft) E 90 2 min 0 W/m 5,2 C 8,8 C 0,7 km/h (0 Bft)
29/02/2012 10:20 9,6 C 76 % 1022,5 hPa 0,0 mm 0,0 km/h (0 Bft) E 90 2 min 0 W/m 5,6 C 9,6 C 0,0 km/h (0 Bft)
29/02/2012 10:30 10,5 C 74 % 1022,5 hPa 0,0 mm 0,0 km/h (0 Bft) E 90 2 min 0 W/m 6,1 C 10,5 C 0,0 km/h (0 Bft)
29/02/2012 10:40 11,4 C 73 % 1022,6 hPa 0,0 mm 2,2 km/h (1 Bft) N-NO 337 2 min 0 W/m 6,7 C 11,4 C 4,3 km/h (1 Bft)
29/02/2012 10:50 12,1 C 72 % 1022,6 hPa 0,0 mm 0,4 km/h (0 Bft) NE 45 2 min 0 W/m 7,2 C 12,1 C 4,3 km/h (1 Bft)
29/02/2012 11:00 12,7 C 69 % 1022,6 hPa 0,0 mm 0,0 km/h (0 Bft) N-NE 22 2 min 0 W/m 7,2 C 12,7 C 0,0 km/h (0 Bft)
29/02/2012 11:10 13,3 C 68 % 1022,6 hPa 0,0 mm 0,0 km/h (0 Bft) N-NE 22 2 min 0 W/m 7,5 C 13,3 C 0,0 km/h (0 Bft)
29/02/2012 11:20 14,1 C 67 % 1022,5 hPa 0,0 mm 0,4 km/h (0 Bft) N-NE 22 2 min 0 W/m 8,1 C 14,1 C 3,2 km/h (1 Bft)
29/02/2012 11:30 14,8 C 65 % 1022,5 hPa 0,0 mm 1,1 km/h (1 Bft) N-NE 22 2 min 0 W/m 8,3 C 14,8 C 3,6 km/h (1 Bft)
29/02/2012 11:40 15,3 C 61 % 1022,6 hPa 0,0 mm 1,4 km/h (1 Bft) E-NE 67 2 min 0 W/m 7,8 C 15,3 C 3,6 km/h (1 Bft)
29/02/2012 11:50 15,9 C 60 % 1022,5 hPa 0,0 mm 0,0 km/h (0 Bft) N-NE 22 2 min 0 W/m 8,1 C 15,9 C 0,0 km/h (0 Bft)
29/02/2012 12:00 16,6 C 58 % 1022,5 hPa 0,0 mm 2,2 km/h (1 Bft) N-NE 22 2 min 0 W/m 8,3 C 16,6 C 3,2 km/h (1 Bft)
29/02/2012 12:10 17,1 C 56 % 1022,4 hPa 0,0 mm 1,8 km/h (1 Bft) N-NE 22 2 min 0 W/m 8,3 C 17,1 C 7,6 km/h (2 Bft)
29/02/2012 12:20 17,3 C 53 % 1022,4 hPa 0,0 mm 5,8 km/h (2 Bft) N-NE 22 2 min 0 W/m 7,6 C 17,3 C 8,6 km/h (2 Bft)
29/02/2012 12:30 17,4 C 53 % 1022,4 hPa 0,0 mm 2,5 km/h (1 Bft) N-NE 22 2 min 0 W/m 7,7 C 17,4 C 6,1 km/h (2 Bft)
29/02/2012 12:40 17,6 C 53 % 1022,4 hPa 0,0 mm 0,4 km/h (0 Bft) N-NE 22 2 min 0 W/m 7,9 C 17,6 C 0,4 km/h (0 Bft)
29/02/2012 12:50 18,1 C 53 % 1022,3 hPa 0,0 mm 0,0 km/h (0 Bft) E 90 2 min 0 W/m 8,4 C 18,1 C 0,0 km/h (0 Bft)
29/02/2012 13:00 18,2 C 51 % 1022,3 hPa 0,0 mm 0,0 km/h (0 Bft) E-SE 112 2 min 0 W/m 7,9 C 18,2 C 0,0 km/h (0 Bft)
29/02/2012 13:10 18,5 C 52 % 1022,4 hPa 0,0 mm 0,0 km/h (0 Bft) NE 45 2 min 0 W/m 8,5 C 18,5 C 0,0 km/h (0 Bft)
29/02/2012 13:20 18,8 C 51 % 1022,2 hPa 0,0 mm 0,0 km/h (0 Bft) NE 45 2 min 0 W/m 8,4 C 18,8 C 2,9 km/h (1 Bft)
29/02/2012 13:30 19,1 C 48 % 1022,3 hPa 0,0 mm 0,0 km/h (0 Bft) N-NO 337 2 min 0 W/m 7,8 C 19,1 C 0,0 km/h (0 Bft)
29/02/2012 13:40 19,4 C 48 % 1021,9 hPa 0,0 mm 0,0 km/h (0 Bft) N-NO 337 2 min 0 W/m 8,1 C 19,4 C 0,0 km/h (0 Bft)
29/02/2012 13:50 19,4 C 47 % 1021,8 hPa 0,0 mm 2,5 km/h (1 Bft) N-NE 22 2 min 0 W/m 7,8 C 19,4 C 3,6 km/h (1 Bft)
29/02/2012 14:00 19,6 C 47 % 1021,6 hPa 0,0 mm 3,6 km/h (1 Bft) E-NE 67 2 min 0 W/m 8,0 C 19,6 C 4,3 km/h (1 Bft)
29/02/2012 14:10 19,8 C 48 % 1021,6 hPa 0,0 mm 5,0 km/h (1 Bft) NE 45 2 min 0 W/m 8,5 C 19,8 C 8,3 km/h (2 Bft)
29/02/2012 14:20 19,8 C 48 % 1021,4 hPa 0,0 mm 0,0 km/h (0 Bft) E 90 2 min 0 W/m 8,5 C 19,8 C 0,0 km/h (0 Bft)
29/02/2012 14:30 20,0 C 46 % 1021,2 hPa 0,0 mm 0,0 km/h (0 Bft) N 360 2 min 0 W/m 8,0 C 20,0 C 0,0 km/h (0 Bft)
29/02/2012 14:40 20,2 C 47 % 1021,2 hPa 0,0 mm 2,5 km/h (1 Bft) NE 45 2 min 0 W/m 8,5 C 20,2 C 4,0 km/h (1 Bft)
29/02/2012 14:50 20,1 C 47 % 1021,1 hPa 0,0 mm 1,4 km/h (1 Bft) N 360 2 min 0 W/m 8,4 C 20,1 C 6,5 km/h (2 Bft)
29/02/2012 15:00 20,0 C 47 % 1020,9 hPa 0,0 mm 4,0 km/h (1 Bft) NE 45 2 min 0 W/m 8,3 C 20,0 C 8,3 km/h (2 Bft)
29/02/2012 15:10 19,7 C 47 % 1020,8 hPa 0,0 mm 0,0 km/h (0 Bft) N 360 2 min 0 W/m 8,1 C 19,7 C 0,0 km/h (0 Bft)
29/02/2012 15:20 19,5 C 47 % 1020,7 hPa 0,0 mm 3,6 km/h (1 Bft) N-NE 22 2 min 0 W/m 7,9 C 19,5 C 10,8 km/h (2 Bft)
29/02/2012 15:30 19,2 C 48 % 1020,7 hPa 0,0 mm 4,7 km/h (1 Bft) E-NE 67 2 min 0 W/m 7,9 C 19,2 C 6,5 km/h (2 Bft)
29/02/2012 15:40 18,9 C 48 % 1020,5 hPa 0,0 mm 1,8 km/h (1 Bft) E-NE 67 2 min 0 W/m 7,6 C 18,9 C 4,0 km/h (1 Bft)
29/02/2012 15:50 18,7 C 48 % 1020,5 hPa 0,0 mm 2,9 km/h (1 Bft) NE 45 2 min 0 W/m 7,5 C 18,7 C 4,3 km/h (1 Bft)
29/02/2012 16:00 18,4 C 48 % 1020,5 hPa 0,0 mm 2,9 km/h (1 Bft) N-NE 22 2 min 0 W/m 7,2 C 18,4 C 7,6 km/h (2 Bft)
29/02/2012 16:10 18,1 C 49 % 1020,4 hPa 0,0 mm 5,8 km/h (2 Bft) NE 45 2 min 0 W/m 7,2 C 18,1 C 11,9 km/h (2 Bft)
29/02/2012 16:20 18,0 C 49 % 1020,3 hPa 0,0 mm 2,9 km/h (1 Bft) N-NE 22 2 min 0 W/m 7,1 C 18,0 C 4,3 km/h (1 Bft)
29/02/2012 16:30 17,9 C 49 % 1020,4 hPa 0,0 mm 0,7 km/h (0 Bft) NE 45 2 min 0 W/m 7,0 C 17,9 C 0,7 km/h (0 Bft)
29/02/2012 16:40 17,8 C 49 % 1020,3 hPa 0,0 mm 2,2 km/h (1 Bft) NE 45 2 min 0 W/m 6,9 C 17,8 C 4,3 km/h (1 Bft)
29/02/2012 16:50 17,7 C 50 % 1020,3 hPa 0,0 mm 2,2 km/h (1 Bft) N-NE 22 2 min 0 W/m 7,1 C 17,7 C 2,9 km/h (1 Bft)
29/02/2012 17:00 17,6 C 50 % 1020,3 hPa 0,0 mm 3,6 km/h (1 Bft) N-NE 22 2 min 0 W/m 7,1 C 17,6 C 4,3 km/h (1 Bft)
29/02/2012 17:10 17,4 C 50 % 1020,3 hPa 0,0 mm 1,1 km/h (1 Bft) NE 45 2 min 0 W/m 6,9 C 17,4 C 6,8 km/h (2 Bft)
29/02/2012 17:20 17,3 C 50 % 1020,2 hPa 0,0 mm 0,7 km/h (0 Bft) N-NE 22 2 min 0 W/m 6,8 C 17,3 C 4,0 km/h (1 Bft)
29/02/2012 17:30 17,1 C 51 % 1020,2 hPa 0,0 mm 2,2 km/h (1 Bft) N-NE 22 2 min 0 W/m 6,9 C 17,1 C 2,9 km/h (1 Bft)
29/02/2012 17:40 16,8 C 53 % 1020,2 hPa 0,0 mm 6,5 km/h (2 Bft) N-NE 22 2 min 0 W/m 7,2 C 16,8 C 11,2 km/h (2 Bft)
29/02/2012 17:50 16,3 C 55 % 1020,2 hPa 0,0 mm 5,0 km/h (1 Bft) NE 45 2 min 0 W/m 7,2 C 16,3 C 13,3 km/h (3 Bft)
29/02/2012 18:00 15,9 C 57 % 1020,3 hPa 0,0 mm 4,0 km/h (1 Bft) N-NE 22 2 min 0 W/m 7,4 C 15,9 C 4,0 km/h (1 Bft)
29/02/2012 18:10 15,6 C 58 % 1020,3 hPa 0,0 mm 5,4 km/h (2 Bft) N 360 2 min 0 W/m 7,4 C 15,6 C 10,1 km/h (2 Bft)
29/02/2012 18:20 15,1 C 59 % 1020,3 hPa 0,0 mm 5,0 km/h (1 Bft) NE 45 2 min 0 W/m 7,1 C 15,1 C 10,1 km/h (2 Bft)
29/02/2012 18:30 14,6 C 60 % 1020,4 hPa 0,0 mm 3,6 km/h (1 Bft) N-NE 22 2 min 0 W/m 6,9 C 14,6 C 7,2 km/h (2 Bft)
29/02/2012 18:40 14,1 C 61 % 1020,5 hPa 0,0 mm 0,7 km/h (0 Bft) N-NE 22 0 min 0 W/m 6,7 C 14,1 C 3,6 km/h (1 Bft)
29/02/2012 18:50 13,6 C 62 % 1020,6 hPa 0,0 mm 1,4 km/h (1 Bft) N-NE 22 0 min 0 W/m 6,5 C 13,6 C 4,0 km/h (1 Bft)
29/02/2012 19:00 13,2 C 63 % 1020,6 hPa 0,0 mm 0,4 km/h (0 Bft) N-NE 22 0 min 0 W/m 6,3 C 13,2 C 4,0 km/h (1 Bft)
29/02/2012 19:10 12,7 C 63 % 1020,6 hPa 0,0 mm 0,4 km/h (0 Bft) N-NE 22 0 min 0 W/m 5,8 C 12,7 C 0,4 km/h (0 Bft)
29/02/2012 19:20 12,3 C 64 % 1020,6 hPa 0,0 mm 0,0 km/h (0 Bft) N-NE 22 0 min 0 W/m 5,7 C 12,3 C 0,0 km/h (0 Bft)
29/02/2012 19:30 11,8 C 64 % 1020,5 hPa 0,0 mm 0,0 km/h (0 Bft) N 360 0 min 0 W/m 5,2 C 11,8 C 3,2 km/h (1 Bft)
29/02/2012 19:40 11,5 C 65 % 1020,6 hPa 0,0 mm 0,4 km/h (0 Bft) N 360 0 min 0 W/m 5,2 C 11,5 C 2,9 km/h (1 Bft)
29/02/2012 19:50 11,1 C 66 % 1020,6 hPa 0,0 mm 0,0 km/h (0 Bft) NE 45 0 min 0 W/m 5,0 C 11,1 C 0,0 km/h (0 Bft)
29/02/2012 20:00 10,8 C 66 % 1020,5 hPa 0,0 mm 0,0 km/h (0 Bft) N 360 0 min 0 W/m 4,7 C 10,8 C 0,0 km/h (0 Bft)
29/02/2012 20:10 10,3 C 67 % 1020,7 hPa 0,0 mm 0,0 km/h (0 Bft) N 360 0 min 0 W/m 4,4 C 10,3 C 0,0 km/h (0 Bft)
29/02/2012 20:20 9,9 C 68 % 1020,7 hPa 0,0 mm 0,0 km/h (0 Bft) N 360 0 min 0 W/m 4,3 C 9,9 C 0,0 km/h (0 Bft)
29/02/2012 20:30 9,5 C 69 % 1020,7 hPa 0,0 mm 0,0 km/h (0 Bft) N 360 0 min 0 W/m 4,1 C 9,5 C 0,0 km/h (0 Bft)
29/02/2012 20:40 9,1 C 69 % 1020,8 hPa 0,0 mm 0,0 km/h (0 Bft) N 360 0 min 0 W/m 3,7 C 9,1 C 0,0 km/h (0 Bft)
29/02/2012 20:50 8,8 C 70 % 1020,7 hPa 0,0 mm 0,0 km/h (0 Bft) N 360 0 min 0 W/m 3,6 C 8,8 C 0,0 km/h (0 Bft)
29/02/2012 21:00 8,5 C 71 % 1020,7 hPa 0,0 mm 0,0 km/h (0 Bft) N 360 0 min 0 W/m 3,5 C 8,5 C 0,0 km/h (0 Bft)
29/02/2012 21:10 8,3 C 72 % 1020,7 hPa 0,0 mm 0,0 km/h (0 Bft) N-NE 22 0 min 0 W/m 3,6 C 8,3 C 0,0 km/h (0 Bft)
29/02/2012 21:20 8,1 C 72 % 1020,7 hPa 0,0 mm 0,0 km/h (0 Bft) N-NE 22 0 min 0 W/m 3,4 C 8,1 C 0,0 km/h (0 Bft)
29/02/2012 21:30 7,9 C 73 % 1020,7 hPa 0,0 mm 0,0 km/h (0 Bft) N-NE 22 0 min 0 W/m 3,4 C 7,9 C 0,0 km/h (0 Bft)
29/02/2012 21:40 7,8 C 74 % 1020,8 hPa 0,0 mm 0,0 km/h (0 Bft) N-NE 22 0 min 0 W/m 3,5 C 7,8 C 0,0 km/h (0 Bft)
29/02/2012 21:50 7,6 C 74 % 1020,9 hPa 0,0 mm 0,0 km/h (0 Bft) N-NE 22 0 min 0 W/m 3,3 C 7,6 C 0,0 km/h (0 Bft)
29/02/2012 22:00 7,4 C 75 % 1020,9 hPa 0,0 mm 0,0 km/h (0 Bft) N-NE 22 0 min 0 W/m 3,3 C 7,4 C 0,0 km/h (0 Bft)
29/02/2012 22:10 7,4 C 75 % 1021,0 hPa 0,0 mm 0,0 km/h (0 Bft) N-NE 22 0 min 0 W/m 3,3 C 7,4 C 0,0 km/h (0 Bft)
29/02/2012 22:20 7,2 C 75 % 1021,0 hPa 0,0 mm 0,0 km/h (0 Bft) N-NE 22 0 min 0 W/m 3,1 C 7,2 C 0,0 km/h (0 Bft)
29/02/2012 22:30 7,0 C 75 % 1020,9 hPa 0,0 mm 0,0 km/h (0 Bft) N-NE 22 0 min 0 W/m 2,9 C 7,0 C 0,0 km/h (0 Bft)
29/02/2012 22:40 6,9 C 77 % 1020,9 hPa 0,0 mm 0,0 km/h (0 Bft) N-NE 22 0 min 0 W/m 3,2 C 6,9 C 0,0 km/h (0 Bft)
29/02/2012 22:50 6,9 C 77 % 1020,9 hPa 0,0 mm 0,0 km/h (0 Bft) N-NE 22 0 min 0 W/m 3,2 C 6,9 C 0,0 km/h (0 Bft)
29/02/2012 23:00 6,8 C 77 % 1020,8 hPa 0,0 mm 0,0 km/h (0 Bft) N-NE 22 0 min 0 W/m 3,1 C 6,8 C 0,0 km/h (0 Bft)
29/02/2012 23:10 6,6 C 78 % 1020,8 hPa 0,0 mm 0,0 km/h (0 Bft) N-NE 22 0 min 0 W/m 3,0 C 6,6 C 0,0 km/h (0 Bft)
29/02/2012 23:20 6,4 C 78 % 1020,9 hPa 0,0 mm 0,0 km/h (0 Bft) N-NE 22 0 min 0 W/m 2,8 C 6,4 C 0,0 km/h (0 Bft)
29/02/2012 23:30 6,3 C 79 % 1020,9 hPa 0,0 mm 0,0 km/h (0 Bft) N 360 0 min 0 W/m 2,9 C 6,3 C 0,0 km/h (0 Bft)
29/02/2012 23:40 6,3 C 79 % 1020,8 hPa 0,0 mm 0,0 km/h (0 Bft) N 360 0 min 0 W/m 2,9 C 6,3 C 0,0 km/h (0 Bft)
29/02/2012 23:50 6,3 C 80 % 1020,8 hPa 0,0 mm 0,0 km/h (0 Bft) N 360 0 min 0 W/m 3,1 C 6,3 C 0,0 km/h (0 Bft)
_ Min-Heure 08:20 14:30 17:50 - 23:50 - - - - 08:20 08:20 23:50
Minimum _ -0,4 C 46 % 1020,2 hPa - 0,0 km/h (0 Bft) - - - - -2,0 C -0,4 C 0,0 km/h (0 Bft)
_ Max-Heure 14:40 08:50 00:00 23:50 17:40 - - 18:30 23:50 14:40 14:40 17:50
Maximum _ 20,2 C 92 % 1022,9 hPa 0,0 mm 6,5 km/h
N-NE (2 Bft)
- - 2 min 0 W/m 8,5 C 20,2 C 13,3 km/h
NE (3 Bft)
Moyenne _ 9,1 C 72 % 1021,6 hPa #0,0 mm 0,8 km/h (0 Bft) N-NE - #2:10 h 0 W/m 3,8 C 9,1 C 1,9 km/h (1 Bft)
Saint Bonnet de Bellac- Haute Vienne - France